Location: Newark
(27.9675°N, 86.8869°E)
Time: 21:23:06
(UTC+00:00)

Courier 1B Rocket - Pass Details

Date: 15 October 2019
Orbit: 920 x 1202 km, 28.2° (Epoch: 20 November)

Event Time Altitude Azimuth Distance (km) Brightness Sun altitude
Rises 04:46:37 0° 278° (W) 3,791 7.9 49.7°
Reaches altitude 10° 04:49:23 10° 271° (W) 2,880 7.4 50.0°
Maximum altitude 04:56:01 43° 203° (SSW) 1,523 7.2 50.6°
Drops below altitude 10° 05:03:03 10° 134° (SE) 3,058 8.4 51.2°
Sets 05:06:06 0° 128° (SE) 4,047 8.7 51.5°
